P/2018 P3 ( PanSTARRS )

Japanese version
Home page
Updated on December 27, 2018

---------------------------------------------------------------------

* Profile

Discovery Date August 8, 2018
Magnitude 21.0 mag
Discoverer Pan-STARRS 1 telescope (Haleakala)

* Pictures

* Orbital Elements

Epoch 2018 Oct. 9.0 TT = JDT 2458400.5
T 2018 Oct.  9.45843 TT                                 MPCW
q   1.7564485            (2000.0)            P               Q
n   0.18902481     Peri.  305.88345     +0.98765408     -0.08270480
a   3.0069313      Node    59.20996     +0.13595586     +0.87443023
e   0.4158668      Incl.    8.90912     -0.07781654     +0.47804989
P   5.21
From 222 observations 2018 Aug. 8-Dec. 14, mean residual 0".5.

* Magnitudes Graph

        m1 = -27   + 5 log d + 180 log r(t-5)  [ ,5]  (             - 2018 Nov. 12)
        m1 =  12.6 + 5 log d +  18 log r       [5, ]  (2018 Nov. 12 -             )

---------------------------------------------------------------------

The orbital elements are published on M.P.E.C. 2018-Y53.
The magnitudes graphs are made with Comet for Windows.

---------------------------------------------------------------------

Copyright(C) Seiichi Yoshida (comet@aerith.net). All rights reserved.